Location: Newark
(7.1028°S, 35.3258°W)
Time: 07:29:11
(UTC+00:00)

Vanguard 3 - Pass Details

Date: 25 February 2020
Orbit: 508 x 3263 km, 33.4° (Epoch: 08 April)

Event Time Altitude Azimuth Distance (km) Brightness Sun altitude
Rises 19:14:21 0° 307° (NW) 5,873 12.2 20.8°
Reaches altitude 10° 19:17:41 10° 307° (NW) 5,156 12.0 20.0°
Maximum altitude 19:34:36 89° 36° (NE) 3,181 10.4 15.8°
Drops below altitude 10° 19:54:42 10° 125° (SE) 5,961 11.2 10.9°
Sets 19:58:55 0° 125° (SE) 6,783 11.4 9.8°
